{"data":{"norad_id":60186,"epoch":"2026-09-20T05:43:34.595040Z","epoch_age_seconds":204059,"freshness":"STALE","line1":"1 60186U 24124D   26263.23859485 -.00000572  00000+0  13641-6 0  9992","line2":"2 60186  53.1593 281.9474 0001170  77.0451 283.0698 15.69705069127090","mean_motion":15.69705069,"eccentricity":0.000117,"inclination_deg":53.1593,"raan_deg":281.9474,"arg_perigee_deg":77.0451,"mean_anomaly_deg":283.0698,"bstar":1.3641e-7,"rev_number":12709,"period_min":91.736978394124,"perigee_km":358.95252938149,"apogee_km":360.52919280098,"semimajor_km":6737.8778610912,"source":"CELESTRAK","updated_at":"2026-09-22T09:00:49.182105Z"}}